Flag for United Kingdom Weather past 2 weeks in Hinckley, England, United Kingdom

Now
53 °F

Cool.


Feels Like: 50 °F
Forecast: 45 / 55 °F
Wind: 8 mph from West

Location: Church Lawford

Current Time: May 30, 2015 at 10:42:18 AM

Latest Report: May 30, 2015 at 10:00 AM


Visibility: 17 mi

Pressure: 29.94 "Hg

Humidity: 58%

Dew point: 38 °F

Location of HinckleyLocation

Historic Weather in Hinckley — Graph

°F

Hinckley temperature yesterday

Maximum temperature yesterday: 55 °F (at 4:00 PM)
Minimum temperature yesterday: 46 °F (at 11:00 PM)
Average temperature yesterday: 50 °F

Past Weeks' High & Low Weather Summary

 TemperatureHumidityPressure
High67 °F (May 22, 4:00 PM)96% (May 18, 9:00 AM)30.35 "Hg (May 18, 9:00 AM)
Low38 °F (May 20, 5:00 AM)41% (May 21, 6:00 PM)29.54 "Hg (May 19, 5:00 AM)
Average52 °F75%30.07 "Hg
* Reported May 15 9:00 AM — May 30 9:00 AM, Hinckley, Weather by CustomWeather, © 2015

Note: Actual official high and low records may vary slightly from our data, if they occured in-between our weather recording intervals... More about our weather records

Advertising

Hinckley weather history for previous 24 hours

 ConditionsComfort  
Time TempWeatherWind HumidityBarometerVisibility
9:00 AM
Sat, May 30
53 °FCool.9 mph63%29.93 "Hg25 mi
8:00 AM49 °FCool.8 mph73%29.91 "Hg22 mi
7:00 AM46 °FCool.5 mph86%29.89 "Hg19 mi
6:00 AM44 °FQuite cool.5 mph88%29.88 "Hg25 mi
5:00 AM44 °FQuite cool.7 mph89%29.87 "Hg25 mi
3:00 AM45 °FQuite cool.8 mph85%29.86 "Hg31 mi
2:00 AM46 °FCool.8 mph80%29.84 "Hg31 mi
1:00 AM46 °FCool.10 mph76%29.84 "Hg28 mi
12:00 AM46 °FCool.7 mph78%29.83 "Hg31 mi
11:00 PM
Fri, May 29
46 °FCool.8 mph75%29.83 "Hg28 mi
9:00 PM49 °FCool.5 mph68%29.78 "Hg28 mi
8:00 PM52 °FCool.8 mph58%29.77 "Hg28 mi
7:00 PM53 °FCool.12 mph55%29.75 "Hg28 mi
6:00 PM54 °FCool.14 mph57%29.73 "Hg31 mi
5:00 PM53 °FCool.15 mph57%29.71 "Hg28 mi
4:00 PM55 °FCool.13 mph68%29.69 "Hg17 mi
3:00 PM52 °FCool.12 mph80%29.68 "Hg25 mi
2:00 PM51 °FCool.12 mph82%29.67 "Hg31 mi
1:00 PM53 °FCool.13 mph79%29.65 "Hg28 mi
12:00 PM49 °FCool.10 mph90%29.64 "Hg25 mi
11:00 AM48 °FRain. Cloudy.12 mph90%29.64 "Hg11 mi
10:00 AM49 °FRain showers. Cloudy.9 mph91%29.63 "Hg7 mi
Weather by CustomWeather, © 2015

See weather overviewHow to use our weather pages